contact:dominique.lefevre@mio.osupytheas.fr, maurice.libes@osupytheas.fr, didier.mallarino@osupytheas.fr
Project:EMSO http://www.emso-fr.org/EMSO-France
Depth: 2436.0 m
Title:EMSO Ligure Ouest : Data MII capteur AQUADOPP
Date,Latitude,Longitude,X_East,Y_North,Z_Up,Amplitude_X,Amplitude_Y,Amplitude_Z,Batterie,SoundSpeed,Heading,Pitch,Roll,Pressure,TIS,Speed,Direction
, degrees North, degrees East, m.s-1, m.s-1,m.s-1, 1, 1, 1, Volt, m.s-1, degree, degree, degree, dbar, degree_C, m.s-1, degree
2020-07-23T00:04:03,42.805,6.029,0.003,0.005,-0.02,105.0,110.0,100.0,13.4,1505.3,324.4,-0.7,1.8,2470.46,13.32,0.005,31.0
2020-07-23T00:07:03,42.805,6.029,-0.012,0.014,-0.035,104.0,107.0,100.0,13.4,1505.3,326.5,-0.7,1.9,2470.455,13.33,0.018,319.4
2020-07-23T00:10:03,42.805,6.029,-0.006,-0.001,-0.017,104.0,107.0,101.0,13.4,1505.3,325.9,-0.7,1.9,2470.436,13.33,0.006,260.5
2020-07-23T00:13:03,42.805,6.029,-0.012,0.016,-0.019,103.0,108.0,102.0,13.4,1505.3,328.0,-0.7,1.9,2470.417,13.33,0.02,323.1
2020-07-23T00:16:03,42.805,6.029,-0.037,-0.003,-0.05,104.0,108.0,103.0,13.4,1505.3,325.1,-0.7,1.8,2470.433,13.33,0.037,265.4
2020-07-23T00:19:03,42.805,6.029,-0.029,0.013,-0.048,104.0,107.0,103.0,13.3,1505.4,326.7,-0.7,1.8,2470.423,13.34,0.031,294.1
2020-07-23T00:22:03,42.805,6.029,0.007,0.021,0.041,104.0,108.0,100.0,13.4,1505.4,326.4,-0.7,1.8,2470.446,13.34,0.022,18.4
2020-07-23T00:25:03,42.805,6.029,-0.014,0.031,0.02,104.0,109.0,101.0,13.4,1505.4,325.5,-0.7,1.8,2470.444,13.34,0.034,335.7
2020-07-23T00:28:03,42.805,6.029,-0.024,0.002,-0.044,103.0,108.0,102.0,13.4,1505.4,325.7,-0.7,1.8,2470.401,13.34,0.024,274.8
2020-07-23T00:31:03,42.805,6.029,-0.001,0.0,-0.008,103.0,108.0,101.0,13.4,1505.4,323.6,-0.7,1.8,2470.394,13.34,0.001,270.0
2020-07-23T00:34:03,42.805,6.029,0.001,0.017,0.024,102.0,107.0,102.0,13.3,1505.4,324.3,-0.7,1.8,2470.409,13.34,0.017,3.4
2020-07-23T00:37:03,42.805,6.029,-0.004,0.013,-0.014,103.0,107.0,100.0,13.4,1505.4,325.9,-0.7,1.8,2470.411,13.34,0.013,342.9
2020-07-23T00:40:03,42.805,6.029,-0.012,0.01,-0.001,104.0,108.0,101.0,13.3,1505.4,326.3,-0.7,1.8,2470.39,13.34,0.015,309.8
2020-07-23T00:43:03,42.805,6.029,0.011,0.013,-0.006,103.0,108.0,101.0,13.3,1505.4,328.0,-0.7,1.8,2470.411,13.34,0.017,40.2
2020-07-23T00:46:03,42.805,6.029,-0.027,-0.006,-0.043,104.0,108.0,102.0,13.4,1505.4,325.3,-0.7,1.8,2470.378,13.34,0.027,257.5
2020-07-23T00:49:03,42.805,6.029,0.008,0.005,0.002,103.0,107.0,100.0,13.4,1505.4,323.1,-0.7,1.8,2470.36,13.34,0.009,58.0
2020-07-23T00:52:03,42.805,6.029,-0.022,0.007,-0.051,102.0,107.0,101.0,13.3,1505.4,323.7,-0.7,1.8,2470.362,13.34,0.023,287.6
2020-07-23T00:55:03,42.805,6.029,-0.018,0.018,-0.024,103.0,108.0,100.0,13.4,1505.4,328.5,-0.7,1.8,2470.388,13.34,0.025,315.0
2020-07-23T00:58:03,42.805,6.029,-0.027,0.012,0.003,103.0,108.0,102.0,13.4,1505.4,326.6,-0.7,1.8,2470.393,13.34,0.029,294.0
2020-07-23T01:04:03,42.805,6.029,-0.017,0.001,-0.001,105.0,109.0,103.0,13.3,1505.3,327.4,-0.7,1.8,2470.401,13.32,0.017,273.4
2020-07-23T01:07:03,42.805,6.029,-0.021,0.0,-0.039,104.0,105.0,101.0,13.4,1505.3,325.5,-0.7,1.8,2470.374,13.33,0.021,270.0
2020-07-23T01:10:03,42.805,6.029,-0.018,0.008,-0.041,104.0,107.0,101.0,13.4,1505.3,327.6,-0.7,1.9,2470.402,13.33,0.019,294.0
2020-07-23T01:13:03,42.805,6.029,-0.056,0.016,-0.029,103.0,107.0,100.0,13.3,1505.3,326.5,-0.7,1.9,2470.411,13.33,0.058,285.9
2020-07-23T01:16:03,42.805,6.029,-0.03,-0.004,-0.026,104.0,106.0,101.0,13.4,1505.3,324.5,-0.7,1.8,2470.339,13.33,0.03,262.4
2020-07-23T01:19:03,42.805,6.029,-0.024,0.017,-0.028,104.0,104.0,102.0,13.4,1505.4,327.0,-0.6,1.8,2470.356,13.34,0.029,305.3
2020-07-23T01:22:03,42.805,6.029,-0.052,0.014,-0.044,103.0,106.0,101.0,13.4,1505.4,328.3,-0.7,1.8,2470.388,13.34,0.053,285.1
2020-07-23T01:25:03,42.805,6.029,-0.016,0.004,-0.045,103.0,107.0,102.0,13.4,1505.4,326.7,-0.7,1.8,2470.328,13.34,0.016,284.0
2020-07-23T01:28:03,42.805,6.029,-0.008,0.006,-0.021,103.0,105.0,101.0,13.4,1505.4,327.4,-0.7,1.8,2470.352,13.34,0.01,306.9
2020-07-23T01:31:03,42.805,6.029,-0.05,0.002,-0.036,104.0,106.0,100.0,13.3,1505.4,323.5,-0.7,1.8,2470.351,13.34,0.05,272.3
2020-07-23T01:34:03,42.805,6.029,-0.026,0.0,-0.062,103.0,107.0,100.0,13.4,1505.4,324.3,-0.7,1.8,2470.358,13.34,0.026,270.0
2020-07-23T01:37:03,42.805,6.029,-0.033,0.007,-0.044,105.0,106.0,100.0,13.4,1505.4,325.5,-0.7,1.8,2470.361,13.34,0.033,282.0
2020-07-23T01:40:03,42.805,6.029,-0.014,0.015,-0.047,103.0,106.0,100.0,13.4,1505.4,323.5,-0.7,1.8,2470.323,13.34,0.02,317.0
2020-07-23T01:43:03,42.805,6.029,-0.033,0.007,-0.049,104.0,105.0,100.0,13.4,1505.4,326.2,-0.7,1.9,2470.324,13.34,0.033,282.0
2020-07-23T01:46:03,42.805,6.029,-0.019,0.017,-0.009,104.0,106.0,103.0,13.4,1505.4,328.6,-0.7,1.8,2470.37,13.34,0.025,311.8
2020-07-23T01:49:03,42.805,6.029,0.019,0.015,-0.001,105.0,106.0,103.0,13.3,1505.4,326.9,-0.7,1.8,2470.326,13.34,0.024,51.7
2020-07-23T01:52:03,42.805,6.029,-0.015,-0.004,-0.009,103.0,107.0,100.0,13.4,1505.4,323.5,-0.7,1.8,2470.304,13.34,0.015,255.1
2020-07-23T01:55:03,42.805,6.029,0.005,0.017,0.003,103.0,105.0,100.0,13.4,1505.4,323.4,-0.7,1.8,2470.331,13.34,0.017,16.4
2020-07-23T01:58:03,42.805,6.029,0.001,0.02,-0.025,102.0,106.0,100.0,13.4,1505.4,326.1,-0.7,1.8,2470.356,13.34,0.02,2.9
2020-07-23T02:04:03,42.805,6.029,0.008,0.009,0.036,102.0,106.0,101.0,13.3,1505.3,327.3,-0.7,1.8,2470.391,13.32,0.012,41.6
2020-07-23T02:07:03,42.805,6.029,-0.019,0.002,-0.026,104.0,105.0,101.0,13.4,1505.3,327.6,-0.7,1.8,2470.302,13.33,0.019,276.0
2020-07-23T02:10:03,42.805,6.029,0.009,-0.013,-0.004,105.0,106.0,101.0,13.3,1505.3,326.2,-0.7,1.9,2470.339,13.33,0.015,145.3
2020-07-23T02:13:03,42.805,6.029,0.012,0.002,0.0,103.0,106.0,101.0,13.4,1505.3,326.9,-0.7,1.8,2470.303,13.33,0.012,80.5
2020-07-23T02:16:03,42.805,6.029,-0.008,0.025,-0.03,104.0,107.0,101.0,13.4,1505.4,326.9,-0.7,1.8,2470.318,13.34,0.026,342.3
2020-07-23T02:19:03,42.805,6.029,0.017,0.004,0.007,103.0,108.0,101.0,13.4,1505.4,324.7,-0.7,1.8,2470.308,13.34,0.017,76.8
2020-07-23T02:22:03,42.805,6.029,-0.029,0.02,-0.04,103.0,107.0,101.0,13.3,1505.4,326.9,-0.7,1.8,2470.328,13.34,0.035,304.6
2020-07-23T02:25:03,42.805,6.029,0.016,0.012,-0.004,103.0,107.0,101.0,13.4,1505.4,324.6,-0.7,1.8,2470.312,13.34,0.02,53.1
2020-07-23T02:28:03,42.805,6.029,0.005,-0.018,-0.026,104.0,105.0,101.0,13.3,1505.4,325.1,-0.7,1.8,2470.335,13.34,0.018,164.5
2020-07-23T02:31:03,42.805,6.029,-0.003,0.002,-0.033,103.0,106.0,101.0,13.3,1505.4,326.6,-0.7,1.9,2470.32,13.34,0.003,303.7
2020-07-23T02:34:03,42.805,6.029,-0.033,0.009,-0.026,104.0,106.0,101.0,13.4,1505.4,324.7,-0.7,1.9,2470.269,13.34,0.034,285.3
2020-07-23T02:37:03,42.805,6.029,-0.066,-0.001,-0.065,104.0,107.0,100.0,13.3,1505.4,327.8,-0.7,1.8,2470.306,13.34,0.066,269.1
2020-07-23T02:40:03,42.805,6.029,-0.003,0.02,-0.032,103.0,106.0,101.0,13.4,1505.4,327.9,-0.7,1.8,2470.284,13.34,0.02,351.5
2020-07-23T02:43:03,42.805,6.029,0.018,0.007,0.014,103.0,107.0,101.0,13.3,1505.4,326.0,-0.7,1.8,2470.307,13.34,0.019,68.8
2020-07-23T02:46:03,42.805,6.029,-0.003,-0.007,0.021,105.0,107.0,100.0,13.4,1505.4,327.1,-0.7,1.8,2470.328,13.34,0.007,203.2
2020-07-23T02:49:03,42.805,6.029,0.018,0.007,0.011,103.0,107.0,101.0,13.3,1505.4,324.9,-0.7,1.9,2470.324,13.34,0.019,68.8
2020-07-23T02:52:03,42.805,6.029,-0.021,-0.003,-0.016,104.0,105.0,102.0,13.4,1505.4,324.2,-0.7,1.9,2470.31,13.34,0.021,261.9
2020-07-23T02:55:03,42.805,6.029,-0.024,-0.011,-0.058,104.0,105.0,101.0,13.3,1505.4,322.9,-0.7,1.8,2470.307,13.34,0.026,245.4
2020-07-23T02:58:03,42.805,6.029,-0.017,0.001,-0.017,102.0,106.0,101.0,13.4,1505.4,327.9,-0.7,1.8,2470.253,13.34,0.017,273.4
2020-07-23T03:04:03,42.805,6.029,-0.011,0.005,-0.022,102.0,106.0,102.0,13.4,1505.3,326.5,-0.8,1.8,2470.33,13.32,0.012,294.4
2020-07-23T03:07:03,42.805,6.029,-0.003,-0.008,-0.049,104.0,105.0,99.0,13.4,1505.3,322.9,-0.7,1.8,2470.268,13.33,0.008,200.6
2020-07-23T03:10:03,42.805,6.029,-0.051,-0.009,-0.037,103.0,105.0,102.0,13.4,1505.3,324.6,-0.7,1.8,2470.312,13.33,0.051,260.0
2020-07-23T03:13:03,42.805,6.029,-0.004,0.003,-0.006,103.0,106.0,100.0,13.3,1505.3,328.3,-0.7,1.8,2470.301,13.33,0.005,306.9
2020-07-23T03:16:03,42.805,6.029,-0.032,0.023,-0.019,103.0,105.0,101.0,13.4,1505.4,324.4,-0.7,1.8,2470.325,13.34,0.039,305.7
2020-07-23T03:22:03,42.805,6.029,0.002,-0.009,-0.011,103.0,107.0,100.0,13.4,1505.3,324.2,-0.8,1.8,2470.374,13.32,0.009,167.5
2020-07-23T03:25:03,42.805,6.029,-0.035,0.007,-0.036,104.0,106.0,100.0,13.4,1505.3,327.8,-0.7,1.9,2470.303,13.33,0.035,281.3
2020-07-23T03:28:03,42.805,6.029,-0.045,0.011,-0.036,104.0,107.0,101.0,13.4,1505.3,325.4,-0.7,1.8,2470.264,13.33,0.046,283.7
2020-07-23T03:31:03,42.805,6.029,-0.05,0.01,-0.04,104.0,106.0,101.0,13.3,1505.3,325.3,-0.7,1.8,2470.329,13.33,0.05,281.3
2020-07-23T03:34:03,42.805,6.029,-0.046,0.0,-0.059,104.0,107.0,101.0,13.4,1505.4,323.0,-0.7,1.9,2470.272,13.34,0.046,270.0
2020-07-23T03:37:03,42.805,6.029,-0.03,0.017,-0.009,104.0,108.0,99.0,13.3,1505.4,328.2,-0.7,1.8,2470.252,13.34,0.034,299.5
2020-07-23T03:40:03,42.805,6.029,-0.051,0.002,-0.071,104.0,106.0,101.0,13.4,1505.4,328.3,-0.7,1.8,2470.336,13.34,0.051,272.2
2020-07-23T03:43:03,42.805,6.029,-0.013,0.023,-0.024,103.0,106.0,101.0,13.3,1505.4,325.8,-0.7,1.9,2470.28,13.34,0.026,330.5
2020-07-23T03:46:03,42.805,6.029,-0.005,0.017,0.0,104.0,108.0,101.0,13.3,1505.4,322.9,-0.7,1.8,2470.261,13.34,0.017,343.6
2020-07-23T03:49:03,42.805,6.029,-0.013,0.011,-0.05,104.0,108.0,100.0,13.3,1505.4,325.6,-0.7,1.8,2470.324,13.34,0.017,310.2
2020-07-23T03:52:03,42.805,6.029,-0.01,0.006,-0.004,105.0,108.0,100.0,13.4,1505.4,325.0,-0.7,1.8,2470.275,13.34,0.011,301.0
2020-07-23T03:55:03,42.805,6.029,-0.016,-0.007,-0.008,104.0,106.0,102.0,13.3,1505.4,326.4,-0.7,1.8,2470.239,13.34,0.017,246.4
2020-07-23T03:58:03,42.805,6.029,-0.012,-0.019,-0.016,103.0,105.0,100.0,13.4,1505.4,323.5,-0.7,1.8,2470.252,13.34,0.022,212.3
2020-07-23T04:04:03,42.805,6.029,0.005,0.01,0.011,103.0,107.0,101.0,13.3,1505.3,326.7,-0.7,1.8,2470.331,13.32,0.011,26.6
2020-07-23T04:07:03,42.805,6.029,0.0,0.008,-0.017,103.0,107.0,100.0,13.3,1505.3,325.7,-0.7,1.8,2470.307,13.33,0.008,0.0
2020-07-23T04:10:03,42.805,6.029,-0.061,0.005,-0.032,103.0,108.0,101.0,13.3,1505.3,325.0,-0.7,1.8,2470.27,13.33,0.061,274.7
2020-07-23T04:13:03,42.805,6.029,-0.037,0.006,-0.049,102.0,108.0,100.0,13.3,1505.3,326.7,-0.7,1.9,2470.301,13.33,0.037,279.2
2020-07-23T04:16:03,42.805,6.029,0.017,0.014,0.012,102.0,108.0,100.0,13.4,1505.3,324.5,-0.7,1.8,2470.324,13.33,0.022,50.5
2020-07-23T04:19:03,42.805,6.029,-0.003,0.0,-0.022,103.0,107.0,100.0,13.3,1505.3,323.8,-0.7,1.8,2470.261,13.33,0.003,270.0
2020-07-23T04:22:03,42.805,6.029,-0.018,0.015,0.017,104.0,107.0,101.0,13.4,1505.3,324.9,-0.7,1.8,2470.279,13.33,0.023,309.8
2020-07-23T04:25:03,42.805,6.029,-0.028,0.008,-0.075,102.0,110.0,101.0,13.4,1505.3,327.8,-0.7,1.8,2470.278,13.33,0.029,285.9
2020-07-23T04:28:03,42.805,6.029,-0.04,0.006,-0.038,104.0,107.0,101.0,13.4,1505.4,324.7,-0.7,1.8,2470.246,13.34,0.04,278.5
2020-07-23T04:31:03,42.805,6.029,-0.026,0.007,-0.056,103.0,107.0,101.0,13.4,1505.4,328.0,-0.7,1.9,2470.291,13.34,0.026,285.1
2020-07-23T04:34:03,42.805,6.029,-0.015,0.017,-0.042,104.0,108.0,101.0,13.4,1505.4,326.9,-0.7,1.8,2470.25,13.34,0.022,318.6
2020-07-23T04:37:03,42.805,6.029,-0.005,-0.013,-0.044,105.0,106.0,102.0,13.4,1505.4,326.3,-0.7,1.8,2470.259,13.34,0.013,201.0
2020-07-23T04:40:03,42.805,6.029,-0.022,-0.002,-0.021,104.0,108.0,101.0,13.4,1505.4,327.3,-0.7,1.8,2470.284,13.34,0.022,264.8
2020-07-23T04:43:03,42.805,6.029,0.0,0.002,-0.006,104.0,107.0,102.0,13.3,1505.4,326.4,-0.7,1.8,2470.261,13.34,0.002,0.0
2020-07-23T04:46:03,42.805,6.029,-0.003,0.017,0.018,105.0,107.0,101.0,13.4,1505.4,327.6,-0.7,1.8,2470.256,13.34,0.017,350.0
2020-07-23T04:49:03,42.805,6.029,-0.005,0.012,-0.016,103.0,106.0,101.0,13.4,1505.4,326.4,-0.7,1.8,2470.296,13.34,0.013,337.4
2020-07-23T04:52:03,42.805,6.029,-0.002,-0.002,-0.036,104.0,107.0,100.0,13.4,1505.4,322.8,-0.7,1.9,2470.287,13.34,0.002,225.0
2020-07-23T04:55:03,42.805,6.029,-0.015,0.005,-0.009,103.0,108.0,100.0,13.4,1505.4,326.4,-0.7,1.8,2470.27,13.34,0.015,288.4
2020-07-23T04:58:03,42.805,6.029,-0.032,-0.022,-0.007,103.0,108.0,101.0,13.4,1505.4,324.9,-0.7,1.8,2470.339,13.34,0.038,235.5
2020-07-23T05:04:03,42.805,6.029,-0.003,0.013,-0.005,103.0,106.0,101.0,13.4,1505.3,325.5,-0.7,1.9,2470.336,13.32,0.013,347.0
2020-07-23T05:07:03,42.805,6.029,-0.016,0.003,-0.023,103.0,106.0,101.0,13.4,1505.3,325.0,-0.8,1.8,2470.369,13.32,0.016,280.6
2020-07-23T05:10:03,42.805,6.029,-0.028,-0.007,-0.026,104.0,108.0,101.0,13.4,1505.3,324.9,-0.7,1.8,2470.337,13.33,0.028,256.0
2020-07-23T05:13:03,42.805,6.029,-0.018,0.007,-0.028,103.0,106.0,101.0,13.4,1505.3,327.5,-0.7,1.8,2470.346,13.33,0.019,291.2
2020-07-23T05:16:03,42.805,6.029,-0.024,0.006,-0.044,104.0,106.0,100.0,13.3,1505.3,324.8,-0.7,1.8,2470.283,13.33,0.024,284.0
2020-07-23T05:19:03,42.805,6.029,-0.022,0.021,-0.015,103.0,107.0,101.0,13.4,1505.3,323.9,-0.7,1.8,2470.335,13.33,0.03,313.7
2020-07-23T05:22:03,42.805,6.029,-0.023,0.01,-0.009,104.0,105.0,101.0,13.4,1505.3,326.6,-0.7,1.8,2470.278,13.33,0.025,293.5
2020-07-23T05:25:03,42.805,6.029,-0.053,0.022,-0.045,103.0,105.0,101.0,13.4,1505.3,323.0,-0.7,1.8,2470.297,13.33,0.057,292.5
2020-07-23T05:28:03,42.805,6.029,-0.02,0.014,-0.045,102.0,106.0,101.0,13.4,1505.3,325.0,-0.7,1.8,2470.332,13.33,0.024,305.0
2020-07-23T05:31:03,42.805,6.029,-0.009,0.019,0.009,104.0,106.0,101.0,13.4,1505.3,323.8,-0.7,1.8,2470.316,13.33,0.021,334.7
2020-07-23T05:34:03,42.805,6.029,0.0,0.008,-0.013,103.0,107.0,101.0,13.4,1505.3,325.3,-0.7,1.8,2470.326,13.33,0.008,0.0
2020-07-23T05:37:03,42.805,6.029,-0.003,0.005,-0.03,103.0,106.0,101.0,13.3,1505.3,322.8,-0.7,1.8,2470.256,13.33,0.005,329.0
2020-07-23T05:40:03,42.805,6.029,-0.014,-0.001,-0.004,104.0,106.0,100.0,13.4,1505.3,326.8,-0.7,1.8,2470.315,13.33,0.014,265.9
2020-07-23T05:43:03,42.805,6.029,-0.011,0.021,0.023,103.0,107.0,102.0,13.4,1505.3,327.2,-0.7,1.8,2470.307,13.33,0.023,332.4
2020-07-23T05:46:03,42.805,6.029,-0.001,0.017,0.011,103.0,106.0,102.0,13.3,1505.3,326.9,-0.7,1.8,2470.364,13.33,0.017,356.6
2020-07-23T05:49:03,42.805,6.029,-0.033,0.019,0.026,104.0,106.0,101.0,13.3,1505.3,323.1,-0.7,1.8,2470.314,13.33,0.038,299.9
2020-07-23T05:52:03,42.805,6.029,-0.008,0.013,-0.003,103.0,106.0,102.0,13.3,1505.3,325.4,-0.7,1.8,2470.334,13.33,0.015,328.4
2020-07-23T05:55:03,42.805,6.029,-0.023,0.004,-0.001,103.0,108.0,100.0,13.4,1505.3,323.3,-0.7,1.8,2470.33,13.33,0.023,279.9
2020-07-23T05:58:03,42.805,6.029,-0.036,0.011,-0.002,103.0,106.0,101.0,13.4,1505.3,324.5,-0.7,1.9,2470.317,13.33,0.037,287.0
2020-07-23T06:04:03,42.805,6.029,-0.022,0.006,-0.024,103.0,105.0,101.0,13.3,1505.3,328.6,-0.7,1.8,2470.388,13.31,0.022,285.3
2020-07-23T06:07:03,42.805,6.029,-0.011,0.018,-0.016,103.0,106.0,102.0,13.4,1505.3,324.2,-0.7,1.9,2470.388,13.32,0.021,328.6
2020-07-23T06:10:03,42.805,6.029,-0.009,0.019,0.002,103.0,106.0,101.0,13.4,1505.3,324.7,-0.7,1.8,2470.363,13.32,0.021,334.7
2020-07-23T06:13:03,42.805,6.029,-0.02,-0.008,-0.027,103.0,107.0,101.0,13.4,1505.3,327.3,-0.7,1.8,2470.395,13.33,0.021,248.2
2020-07-23T06:16:03,42.805,6.029,-0.025,0.014,-0.006,103.0,106.0,100.0,13.4,1505.3,326.4,-0.7,1.8,2470.364,13.33,0.028,299.3
2020-07-23T06:19:03,42.805,6.029,-0.03,0.018,-0.045,104.0,106.0,100.0,13.3,1505.3,322.9,-0.7,1.8,2470.348,13.33,0.034,301.0
2020-07-23T06:22:03,42.805,6.029,-0.021,0.014,0.0,104.0,107.0,101.0,13.4,1505.3,326.6,-0.7,1.8,2470.361,13.33,0.025,303.7
2020-07-23T06:25:03,42.805,6.029,-0.038,0.002,-0.019,103.0,106.0,102.0,13.4,1505.3,328.0,-0.7,1.8,2470.355,13.33,0.038,273.0
2020-07-23T06:28:03,42.805,6.029,-0.036,0.004,-0.024,103.0,107.0,102.0,13.4,1505.3,324.7,-0.7,1.8,2470.356,13.33,0.036,276.3
2020-07-23T06:31:03,42.805,6.029,-0.047,0.019,-0.015,103.0,107.0,100.0,13.4,1505.3,324.4,-0.7,1.8,2470.372,13.33,0.05,292.0
2020-07-23T06:34:03,42.805,6.029,-0.019,0.002,-0.035,104.0,106.0,101.0,13.4,1505.3,327.5,-0.7,1.8,2470.356,13.33,0.019,276.0
2020-07-23T06:37:03,42.805,6.029,-0.009,0.021,-0.023,105.0,107.0,102.0,13.4,1505.3,326.8,-0.7,1.8,2470.413,13.33,0.022,336.8
2020-07-23T06:40:03,42.805,6.029,-0.031,0.017,-0.02,104.0,108.0,102.0,13.4,1505.3,328.4,-0.7,1.8,2470.372,13.33,0.035,298.7
2020-07-23T06:43:03,42.805,6.029,-0.018,0.034,-0.023,103.0,106.0,102.0,13.3,1505.3,323.4,-0.7,1.8,2470.331,13.33,0.038,332.1
2020-07-23T06:46:03,42.805,6.029,-0.035,0.01,-0.025,104.0,107.0,102.0,13.4,1505.3,325.1,-0.7,1.8,2470.387,13.33,0.036,285.9
2020-07-23T06:49:03,42.805,6.029,-0.012,0.002,-0.004,105.0,107.0,102.0,13.4,1505.3,323.2,-0.7,1.8,2470.394,13.33,0.012,279.5
2020-07-23T06:52:03,42.805,6.029,-0.042,0.015,-0.019,104.0,107.0,102.0,13.4,1505.3,325.3,-0.7,1.8,2470.355,13.33,0.044,289.6
2020-07-23T06:55:03,42.805,6.029,-0.026,0.003,-0.031,104.0,107.0,101.0,13.4,1505.3,327.4,-0.7,1.8,2470.401,13.33,0.026,276.6
2020-07-23T06:58:03,42.805,6.029,-0.033,0.025,-0.027,103.0,108.0,101.0,13.4,1505.3,324.5,-0.7,1.8,2470.346,13.33,0.041,307.1
2020-07-23T07:04:03,42.805,6.029,-0.025,0.006,-0.016,103.0,105.0,100.0,13.4,1505.3,326.5,-0.7,1.8,2470.428,13.31,0.025,283.5
2020-07-23T07:07:03,42.805,6.029,-0.017,0.005,0.0,104.0,107.0,101.0,13.4,1505.3,326.4,-0.7,1.8,2470.433,13.32,0.017,286.4
2020-07-23T07:10:03,42.805,6.029,-0.034,0.007,-0.018,103.0,107.0,100.0,13.4,1505.3,323.7,-0.7,1.8,2470.424,13.33,0.034,281.6
2020-07-23T07:13:03,42.805,6.029,-0.016,0.003,0.0,103.0,107.0,101.0,13.3,1505.3,325.6,-0.7,1.8,2470.427,13.33,0.016,280.6
2020-07-23T07:16:03,42.805,6.029,-0.021,-0.009,0.003,104.0,107.0,101.0,13.3,1505.3,323.7,-0.7,1.8,2470.39,13.33,0.022,246.8
2020-07-23T07:19:03,42.805,6.029,-0.038,0.006,-0.016,103.0,108.0,101.0,13.3,1505.3,326.9,-0.7,1.8,2470.397,13.33,0.038,279.0
2020-07-23T07:22:03,42.805,6.029,-0.033,0.023,-0.003,103.0,108.0,101.0,13.4,1505.3,323.4,-0.7,1.9,2470.402,13.33,0.04,304.9
2020-07-23T07:25:03,42.805,6.029,-0.014,0.008,0.004,104.0,108.0,101.0,13.4,1505.3,322.9,-0.7,1.8,2470.413,13.33,0.016,299.7
2020-07-23T07:28:03,42.805,6.029,-0.013,0.024,0.001,104.0,109.0,101.0,13.3,1505.3,327.4,-0.7,1.8,2470.384,13.33,0.027,331.6
2020-07-23T07:31:03,42.805,6.029,-0.032,0.011,-0.004,103.0,107.0,103.0,13.4,1505.3,327.2,-0.7,1.8,2470.371,13.33,0.033,289.0
2020-07-23T07:34:03,42.805,6.029,-0.026,0.013,-0.017,103.0,107.0,101.0,13.4,1505.3,325.2,-0.7,1.8,2470.414,13.33,0.029,296.6
2020-07-23T07:37:03,42.805,6.029,-0.017,0.011,0.012,103.0,106.0,101.0,13.3,1505.3,323.8,-0.7,1.8,2470.404,13.33,0.02,302.9
2020-07-23T07:40:03,42.805,6.029,-0.034,0.001,-0.012,104.0,106.0,101.0,13.4,1505.3,325.1,-0.7,1.8,2470.397,13.33,0.034,271.7
2020-07-23T07:43:03,42.805,6.029,-0.004,0.016,0.0,104.0,107.0,101.0,13.3,1505.3,328.0,-0.7,1.9,2470.454,13.33,0.016,346.0
2020-07-23T07:46:03,42.805,6.029,-0.036,0.0,0.007,102.0,108.0,100.0,13.4,1505.3,323.2,-0.7,1.8,2470.419,13.33,0.036,270.0
2020-07-23T07:49:03,42.805,6.029,-0.003,0.005,0.033,103.0,107.0,100.0,13.4,1505.3,327.8,-0.7,1.9,2470.388,13.33,0.005,329.0
2020-07-23T07:52:03,42.805,6.029,-0.033,0.012,-0.009,103.0,107.0,101.0,13.3,1505.3,326.8,-0.7,1.8,2470.426,13.33,0.035,290.0
2020-07-23T07:55:03,42.805,6.029,-0.039,0.013,0.013,104.0,108.0,101.0,13.3,1505.3,326.0,-0.7,1.8,2470.421,13.33,0.041,288.4
2020-07-23T07:58:03,42.805,6.029,-0.018,0.019,-0.023,103.0,108.0,100.0,13.4,1505.3,325.7,-0.7,1.8,2470.426,13.33,0.026,316.5
2020-07-23T08:04:03,42.805,6.029,-0.034,0.015,0.0,103.0,107.0,100.0,13.3,1505.3,323.3,-0.8,1.8,2470.447,13.31,0.037,293.8
2020-07-23T08:07:03,42.805,6.029,-0.05,0.004,-0.048,104.0,109.0,100.0,13.3,1505.3,323.9,-0.7,1.8,2470.434,13.32,0.05,274.6
2020-07-23T08:10:03,42.805,6.029,-0.011,0.016,-0.018,104.0,107.0,101.0,13.4,1505.3,323.7,-0.7,1.8,2470.453,13.32,0.019,325.5
2020-07-23T08:13:03,42.805,6.029,-0.029,0.018,-0.01,104.0,107.0,101.0,13.4,1505.3,323.3,-0.7,1.8,2470.427,13.32,0.034,301.8
2020-07-23T08:16:03,42.805,6.029,-0.043,0.03,-0.036,103.0,107.0,101.0,13.4,1505.3,328.2,-0.7,1.9,2470.447,13.33,0.052,304.9
2020-07-23T08:19:03,42.805,6.029,-0.041,0.026,-0.034,103.0,108.0,101.0,13.4,1505.3,326.1,-0.7,1.8,2470.441,13.33,0.048,302.4
2020-07-23T08:22:03,42.805,6.029,-0.056,0.015,-0.045,101.0,108.0,101.0,13.4,1505.3,323.5,-0.7,1.9,2470.414,13.33,0.057,285.0
2020-07-23T08:25:03,42.805,6.029,-0.025,0.019,-0.034,104.0,107.0,100.0,13.4,1505.3,328.1,-0.7,1.8,2470.375,13.33,0.031,307.2
2020-07-23T08:28:03,42.805,6.029,-0.074,0.044,-0.013,103.0,108.0,101.0,13.4,1505.3,324.7,-0.7,1.9,2470.434,13.33,0.086,300.7
2020-07-23T08:31:03,42.805,6.029,-0.038,0.024,0.027,104.0,106.0,100.0,13.4,1505.3,323.3,-0.7,1.8,2470.426,13.33,0.044,302.3
2020-07-23T08:34:03,42.805,6.029,-0.036,0.012,-0.027,103.0,106.0,101.0,13.4,1505.3,328.1,-0.7,1.8,2470.436,13.33,0.037,288.4
2020-07-23T08:37:03,42.805,6.029,0.006,0.006,-0.012,102.0,109.0,103.0,13.3,1505.3,327.0,-0.7,1.8,2470.42,13.33,0.008,45.0
2020-07-23T08:40:03,42.805,6.029,-0.042,0.027,-0.042,101.0,107.0,101.0,13.4,1505.3,323.0,-0.7,1.8,2470.401,13.33,0.049,302.7
2020-07-23T08:43:03,42.805,6.029,0.003,0.011,0.037,103.0,108.0,99.0,13.3,1505.3,325.0,-0.7,1.8,2470.414,13.33,0.011,15.3
2020-07-23T08:46:03,42.805,6.029,-0.016,0.02,0.024,104.0,108.0,101.0,13.3,1505.3,324.2,-0.7,1.8,2470.445,13.33,0.025,321.3
2020-07-23T08:49:03,42.805,6.029,-0.004,0.023,-0.008,103.0,109.0,101.0,13.4,1505.3,327.4,-0.7,1.8,2470.42,13.33,0.023,350.1
2020-07-23T08:52:03,42.805,6.029,-0.061,0.003,-0.021,104.0,107.0,102.0,13.3,1505.3,325.1,-0.7,1.8,2470.39,13.33,0.061,272.8
2020-07-23T08:55:03,42.805,6.029,-0.008,0.004,0.006,105.0,108.0,101.0,13.4,1505.3,324.1,-0.7,1.8,2470.428,13.33,0.008,296.6
2020-07-23T08:58:03,42.805,6.029,-0.029,0.016,-0.029,104.0,109.0,104.0,13.4,1505.3,325.9,-0.7,1.8,2470.448,13.33,0.033,298.9
2020-07-23T09:04:03,42.805,6.029,-0.025,0.022,0.004,103.0,107.0,103.0,13.3,1505.3,324.8,-0.7,1.8,2470.458,13.31,0.033,311.3
2020-07-23T09:07:03,42.805,6.029,-0.036,0.001,-0.036,105.0,110.0,101.0,13.4,1505.3,325.4,-0.7,1.8,2470.448,13.32,0.036,271.6
2020-07-23T09:10:03,42.805,6.029,-0.049,0.016,-0.02,103.0,108.0,101.0,13.3,1505.3,325.1,-0.7,1.8,2470.441,13.32,0.051,288.1
2020-07-23T09:13:03,42.805,6.029,-0.037,-0.002,0.006,104.0,108.0,102.0,13.4,1505.3,328.4,-0.7,1.8,2470.428,13.32,0.037,266.9
2020-07-23T09:16:03,42.805,6.029,-0.021,0.008,-0.035,104.0,108.0,102.0,13.4,1505.3,326.1,-0.7,1.8,2470.431,13.33,0.022,290.9
2020-07-23T09:19:03,42.805,6.029,-0.046,0.018,-0.001,103.0,109.0,103.0,13.4,1505.3,323.3,-0.7,1.8,2470.422,13.33,0.049,291.4
2020-07-23T09:22:03,42.805,6.029,-0.06,0.016,-0.022,103.0,109.0,101.0,13.4,1505.3,327.1,-0.7,1.8,2470.453,13.33,0.062,284.9
2020-07-23T09:25:03,42.805,6.029,-0.041,0.009,-0.027,104.0,109.0,101.0,13.3,1505.3,323.9,-0.7,1.8,2470.456,13.33,0.041,282.4
2020-07-23T09:28:03,42.805,6.029,-0.048,0.012,0.007,105.0,109.0,101.0,13.4,1505.3,326.0,-0.7,1.8,2470.415,13.33,0.049,284.0
2020-07-23T09:31:03,42.805,6.029,-0.065,-0.005,-0.053,104.0,108.0,101.0,13.3,1505.3,325.6,-0.7,1.8,2470.416,13.33,0.065,265.6
2020-07-23T09:34:03,42.805,6.029,-0.003,0.013,0.006,104.0,108.0,100.0,13.4,1505.3,325.0,-0.7,1.9,2470.424,13.33,0.013,347.0
2020-07-23T09:37:03,42.805,6.029,-0.054,0.023,-0.04,104.0,108.0,101.0,13.4,1505.3,327.6,-0.7,1.8,2470.406,13.33,0.058,293.1
2020-07-23T09:40:03,42.805,6.029,-0.032,0.02,-0.006,103.0,109.0,102.0,13.4,1505.3,325.6,-0.7,1.8,2470.431,13.33,0.037,302.0
2020-07-23T09:43:03,42.805,6.029,-0.042,0.034,-0.005,104.0,110.0,100.0,13.4,1505.3,323.9,-0.7,1.9,2470.435,13.33,0.054,309.0
2020-07-23T09:46:03,42.805,6.029,-0.049,0.016,-0.03,104.0,110.0,100.0,13.3,1505.3,322.9,-0.7,1.8,2470.448,13.33,0.051,288.1
2020-07-23T09:49:03,42.805,6.029,-0.018,0.012,-0.031,104.0,109.0,101.0,13.4,1505.3,324.4,-0.7,1.8,2470.412,13.33,0.021,303.7
2020-07-23T09:52:03,42.805,6.029,-0.028,0.049,-0.033,104.0,107.0,101.0,13.3,1505.3,324.5,-0.7,1.8,2470.359,13.33,0.056,330.3
2020-07-23T09:55:03,42.805,6.029,-0.033,0.013,-0.061,106.0,108.0,102.0,13.4,1505.3,327.3,-0.7,1.8,2470.388,13.33,0.035,291.5
2020-07-23T09:58:03,42.805,6.029,-0.032,0.026,-0.02,102.0,109.0,102.0,13.4,1505.3,326.1,-0.7,1.8,2470.415,13.33,0.041,309.1